Albany, NY

10:38 AM EST on November 12, 2019 (GMT -0500)
Albany International

Weather History for KALB - July, 2019

Change the Weather History Date:

Thursday, July 11, 2019

  Actual Average Record
Temperature  
Mean Temperature 79 °F 72 °F  
Max Temperature 86 °F 82 °F 98 °F (1936)
Min Temperature 71 °F 61 °F 48 °F (1945)
Degree Days  
Heating Degree Days 0 0  
Month to date heating degree days 0 0  
Since 1 June heating degree days 27 52  
Since 1 July heating degree days 0 0  
Cooling Degree Days 14 7  
Month to date cooling degree days 124 74  
Year to date cooling degree days 274 222  
Since 1 June cooling degree days 252 192  
Growing Degree Days 28 (Base 50)    
Moisture  
Dew Point 66 °F    
Average Humidity 67    
Maximum Humidity 79    
Minimum Humidity 55    
Precipitation  
Precipitation 0.01 in 0.13 in 1.46 in (1942)
Month to date precipitation 0.51 1.44  
Year to date precipitation 21.38 20.01  
Sea Level Pressure  
Sea Level Pressure 29.86 in    
Wind  
Wind Speed 9 mph (South)    
Max Wind Speed 21 mph    
Max Gust Speed 27 mph    
Visibility 10 miles    
Events Rain    
T = Trace of Precipitation, MM = Missing Value Source: NWS Daily Summary

Daily Weather History Graph

Daily Weather History Graph

Search for Another Location

Airport or City:

Astronomy

Jul. 11, 2019 Rise Set
Actual Time 5:27 AM EDT 8:33 PM EDT
Civil Twilight 4:52 AM EDT 9:08 PM EDT
Nautical Twilight 4:08 AM EDT 9:51 PM EDT
Astronomical Twilight 3:16 AM EDT 10:44 PM EDT
Moon 3:40 PM EDT (7/11) 1:41 AM EDT (7/11)
Length of Visible Light 16h 15m
Length of Day
15h 06m
Waxing Gibbous, 74% of the Moon is Illuminated
Jul 11
Waxing Gibbous
Jul 16
Full
Jul 24
Last Quarter
Jul 31
New
Aug 7
First Quarter

Hourly Weather History & Observations

Time (EDT) Temp. Heat Index Dew Point Humidity Pressure Visibility Wind Dir Wind Speed Gust Speed Precip Events Conditions
12:51 AM 73.9 °F - 63.0 °F 68% 29.94 in 10.0 mi Calm Calm - N/A   Scattered Clouds
1:51 AM 75.0 °F - 64.0 °F 69% 29.93 in 10.0 mi SSE 6.9 mph - N/A   Scattered Clouds
2:51 AM 75.0 °F - 64.0 °F 69% 29.94 in 10.0 mi Variable 3.5 mph - N/A   Scattered Clouds
3:51 AM 73.0 °F - 64.0 °F 73% 29.93 in 10.0 mi South 3.5 mph - N/A   Scattered Clouds
4:51 AM 71.1 °F - 64.0 °F 78% 29.93 in 10.0 mi Calm Calm - N/A   Mostly Cloudy
5:51 AM 72.0 °F - 64.9 °F 78% 29.93 in 10.0 mi Calm Calm - N/A   Mostly Cloudy
6:51 AM 72.0 °F - 64.9 °F 78% 29.94 in 10.0 mi SSE 3.5 mph - N/A   Mostly Cloudy
7:51 AM 75.9 °F - 66.9 °F 74% 29.93 in 10.0 mi SSE 6.9 mph - N/A   Scattered Clouds
8:51 AM 78.1 °F - 68.0 °F 71% 29.92 in 10.0 mi South 11.5 mph 20.7 mph N/A   Mostly Cloudy
9:51 AM 79.0 °F - 68.0 °F 69% 29.91 in 10.0 mi South 11.5 mph - N/A   Mostly Cloudy
10:51 AM 79.0 °F - 69.1 °F 72% 29.90 in 10.0 mi South 12.7 mph - N/A   Mostly Cloudy
11:51 AM 79.0 °F - 70.0 °F 74% 29.89 in 8.0 mi South 10.4 mph - 0.01 in Rain Light Rain
12:51 PM 78.1 °F - 69.1 °F 74% 29.88 in 9.0 mi South 10.4 mph - 0.00 in Rain Light Rain
1:51 PM 79.0 °F - 70.0 °F 74% 29.86 in 10.0 mi SSE 11.5 mph 19.6 mph 0.00 in Rain Light Rain
2:51 PM 79.0 °F - 69.1 °F 72% 29.83 in 10.0 mi SSE 4.6 mph - 0.00 in   Overcast
4:51 PM 82.9 °F 84.4 °F 64.0 °F 53% 29.79 in 10.0 mi South 16.1 mph 24.2 mph N/A   Overcast
5:51 PM 82.9 °F 84.6 °F 64.9 °F 54% 29.78 in 10.0 mi South 11.5 mph - N/A   Overcast
6:51 PM 81.0 °F 83.0 °F 66.0 °F 60% 29.78 in 10.0 mi South 13.8 mph 25.3 mph 0.00 in   Overcast
7:51 PM 80.1 °F 81.9 °F 64.9 °F 60% 29.78 in 10.0 mi South 12.7 mph 21.9 mph N/A   Overcast
8:51 PM 78.1 °F - 64.9 °F 64% 29.77 in 10.0 mi South 16.1 mph 25.3 mph N/A   Overcast
9:51 PM 77.0 °F - 64.9 °F 66% 29.79 in 10.0 mi South 12.7 mph 20.7 mph N/A   Overcast
10:51 PM 75.9 °F - 66.0 °F 71% 29.78 in 10.0 mi South 13.8 mph 20.7 mph 0.00 in   Overcast
11:51 PM 75.0 °F - 66.9 °F 76% 29.76 in 10.0 mi South 11.5 mph - N/A   Mostly Cloudy